This demonstration page uses our WeatherBlox Daily Observations layout. Learn more.

Hourly Observations for August 18, 2017

Temp ( °F °C ) Dew Point ( °F °C ) Humidity (%) Winds ( mph kmh ) Pressure ( in mb ) Visibility ( mi km ) Precip ( " mm )
12:15 am 00:15 Partly Cloudy 79 26 77 25 94 94 S 6 9 29.91 1013 10 16.09344 0 0
12:35 am 00:35 Clear 79 26 77 25 94 94 S 7 11 29.91 1013 10 16.09344 0 0
12:55 am 00:55 Clear 77 25 77 25 100 100 SSW 3 6 29.91 1013 10 16.09344 0 0
1:15 am 01:15 Clear 77 25 77 25 100 100 S 3 6 29.91 1013 10 16.09344 0 0
1:35 am 01:35 Partly Cloudy 77 25 77 25 100 100 S 3 6 29.91 1013 10 16.09344 0 0
1:55 am 01:55 Mostly Cloudy 77 25 77 25 100 100 SSW 3 6 29.91 1013 10 16.09344 0 0
2:15 am 02:15 Mostly Cloudy 77 25 77 25 100 100 SSW 3 6 29.91 1013 10 16.09344 0 0
2:35 am 02:35 Partly Cloudy 77 25 77 25 100 100 S 6 9 29.88 1012 10 16.09344 0 0
2:55 am 02:55 Mostly Cloudy 77 25 77 25 100 100 SSW 6 9 29.88 1012 10 16.09344 0 0
3:15 am 03:15 Cloudy 77 25 77 25 100 100 SSW 5 7 29.88 1012 10 16.09344 0 0
3:35 am 03:35 Cloudy 77 25 77 25 100 100 SW 3 6 29.88 1012 10 16.09344 0 0
3:55 am 03:55 Cloudy 77 25 77 25 100 100 SSW 3 6 29.88 1012 10 16.09344 0 0
4:15 am 04:15 Cloudy 77 25 77 25 100 100 S 5 7 29.88 1012 10 16.09344 0 0
4:35 am 04:35 Cloudy 77 25 77 25 100 100 S 5 7 29.88 1012 10 16.09344 0 0
4:55 am 04:55 Cloudy 77 25 77 25 100 100 S 5 7 29.88 1012 7 11.265408 0 0
5:15 am 05:15 Cloudy 77 25 77 25 100 100 SSW 5 7 29.88 1012 7 11.265408 0 0
5:35 am 05:35 Cloudy 77 25 77 25 100 100 Calm 29.88 1012 7 11.265408 0 0
5:55 am 05:55 Cloudy 77 25 77 25 100 100 S 3 6 29.88 1012 7 11.265408 0 0
6:15 am 06:15 Cloudy 77 25 77 25 100 100 S 5 7 29.88 1012 7 11.265408 0 0
6:35 am 06:35 Cloudy 77 25 77 25 100 100 S 3 6 29.88 1012 7 11.265408 0 0
6:55 am 06:55 Cloudy with Mist and Fog 77 25 77 25 100 100 S 5 7 29.88 1012 5 8.04672 0 0
7:15 am 07:15 Cloudy 77 25 77 25 100 100 S 3 6 29.88 1012 7 11.265408 0 0
7:35 am 07:35 Cloudy 79 26 79 26 100 100 SSW 3 6 29.88 1012 7 11.265408 0 0
7:55 am 07:55 Cloudy 79 26 79 26 100 100 Calm 29.88 1012 7 11.265408 0 0
8:15 am 08:15 Cloudy 79 26 79 26 100 100 S 3 6 29.88 1012 10 16.09344 0 0
8:35 am 08:35 Cloudy 79 26 79 26 100 100 SSW 6 9 29.88 1012 10 16.09344 0 0
8:55 am 08:55 Cloudy 79 26 79 26 100 100 SSW 6 9 29.88 1012 10 16.09344 0 0
9:15 am 09:15 Cloudy 81 27 79 26 94 94 S 3 6 29.88 1012 10 16.09344 0 0
9:35 am 09:35 Cloudy 81 27 79 26 94 94 SW 3 6 29.88 1012 10 16.09344 0 0
9:55 am 09:55 Mostly Cloudy 82 28 79 26 89 89 SSE 3 6 29.88 1012 10 16.09344 0 0
10:15 am 10:15 Partly Cloudy 82 28 79 26 89 89 S 3 6 29.88 1012 10 16.09344 0 0
10:35 am 10:35 Mostly Cloudy 86 30 79 26 79 79 S 6 9 29.85 1011 10 16.09344 0 0
10:55 am 10:55 Partly Cloudy 86 30 79 26 79 79 S 6 9 29.85 1011 10 16.09344 0 0
11:15 am 11:15 Partly Cloudy 86 30 79 26 79 79 S 7 11 29.85 1011 10 16.09344 0 0
11:35 am 11:35 Sunny 88 31 79 26 75 75 SSE 6 9 29.85 1011 10 16.09344 0 0
11:55 am 11:55 Sunny 90 32 79 26 71 71 SSW 6 9 29.85 1011 10 16.09344 0 0
12:15 pm 12:15 Sunny 90 32 79 26 71 71 S 7 11 29.83 1010 10 16.09344 0 0
12:35 pm 12:35 Sunny 91 33 77 25 63 63 S 9 15 29.83 1010 10 16.09344 0 0
12:55 pm 12:55 Sunny 91 33 77 25 63 63 SSW 10 17 29.8 1009 10 16.09344 0 0
1:15 pm 13:15 Sunny 91 33 77 25 63 63 SW 7 11 29.8 1009 10 16.09344 0 0
1:35 pm 13:35 Partly Cloudy 91 33 77 25 63 63 S 9 15 29.8 1009 10 16.09344 0 0
1:55 pm 13:55 Partly Cloudy 93 34 77 25 59 59 S 10 17 29.8 1009 10 16.09344 0 0
2:15 pm 14:15 Partly Cloudy 93 34 77 25 59 59 SSW 9 15 29.8 1009 10 16.09344 0 0
2:35 pm 14:35 Sunny 93 34 79 26 63 63 S 7 11 29.77 1008 10 16.09344 0 0
2:55 pm 14:55 Mostly Cloudy 91 33 77 25 63 63 SW 7 11 29.77 1008 10 16.09344 0 0
3:15 pm 15:15 Mostly Cloudy 91 33 79 26 67 67 SW 3 6 29.74 1007 10 16.09344 0 0
3:35 pm 15:35 Cloudy with Light Thunderstorms 90 32 79 26 71 71 WSW 6 9 29.74 1007 10 16.09344 0 0
3:55 pm 15:55 Cloudy with Light Thunderstorms 79 26 77 25 94 94 N 5 7 29.8 1009 10 16.09344 0 0
4:15 pm 16:15 Mostly Cloudy with Nearby Thunderstorms 81 27 79 26 94 94 NNE 7 11 29.8 1009 10 16.09344 0 0
4:35 pm 16:35 Cloudy 79 26 79 26 100 100 NW 8 13 29.8 1009 10 16.09344 0 0
4:55 pm 16:55 Cloudy 79 26 77 25 94 94 N 25 41 29.74 1007 1.5 2.414016 0.17 4.318
5:15 pm 17:15 Cloudy with Light Thunderstorms 77 25 77 25 100 100 NNW 3 6 29.8 1009 10 16.09344 0.13 3.302
5:35 pm 17:35 Mostly Cloudy with Light Thunderstorms 79 26 79 26 100 100 NNE 7 11 29.8 1009 4 6.437376 0.18 4.572
5:55 pm 17:55 Partly Cloudy 79 26 79 26 100 100 Calm 29.8 1009 10 16.09344 0.18 4.572
6:15 pm 18:15 Cloudy with Nearby Thunderstorms 79 26 79 26 100 100 SSW 3 6 29.8 1009 10 16.09344 0 0
6:35 pm 18:35 Cloudy with Light Thunderstorms 79 26 79 26 100 100 Calm 29.8 1009 10 16.09344 0 0
6:55 pm 18:55 Partly Cloudy 81 27 79 26 94 94 Calm 29.8 1009 10 16.09344 0 0
7:15 pm 19:15 Partly Cloudy 81 27 79 26 94 94 Calm 29.8 1009 10 16.09344 0 0
7:35 pm 19:35 Partly Cloudy 81 27 79 26 94 94 Calm 29.8 1009 10 16.09344 0 0
7:55 pm 19:55 Mostly Cloudy 81 27 79 26 94 94 SSW 3 6 29.83 1010 10 16.09344 0 0
8:15 pm 20:15 Mostly Cloudy 79 26 79 26 100 100 WNW 3 6 29.83 1010 10 16.09344 0 0
8:35 pm 20:35 Partly Cloudy 79 26 79 26 100 100 Calm 29.83 1010 10 16.09344 0 0
8:55 pm 20:55 Clear 79 26 79 26 100 100 Calm 29.83 1010 10 16.09344 0 0
9:15 pm 21:15 Partly Cloudy 79 26 79 26 100 100 Calm 29.85 1011 10 16.09344 0 0
9:35 pm 21:35 Partly Cloudy 79 26 79 26 100 100 Calm 29.85 1011 10 16.09344 0 0
9:55 pm 21:55 Partly Cloudy 77 25 77 25 100 100 Calm 29.88 1012 10 16.09344 0 0
10:15 pm 22:15 Mostly Cloudy 79 26 77 25 94 94 SSW 5 7 29.88 1012 10 16.09344 0 0
10:35 pm 22:35 Cloudy 77 25 77 25 100 100 Calm 29.88 1012 10 16.09344 0 0
10:55 pm 22:55 Cloudy 77 25 77 25 100 100 Calm 29.88 1012 10 16.09344 0 0
11:15 pm 23:15 Cloudy 77 25 77 25 100 100 Calm 29.88 1012 10 16.09344 0 0
11:35 pm 23:35 Cloudy 77 25 77 25 100 100 Calm 29.88 1012 10 16.09344 0 0
11:55 pm 23:55 Cloudy 77 25 77 25 100 100 Calm 29.88 1012 10 16.09344 0 0

Powered by AerisWeather